Simultaneous Nadir Overpasses (SNOs) Predictions

Prediction of SNOs between AQUA and METOP-B Satellite Orbit:

Table of predicted SNOs for the next 14.0 days since TLE Epoch: 4/6/2018
Index Date (AQUA) Time (AQUA) Lat,Lon (AQUA) SZA (AQUA ) Date (METOP-B) Time (METOP-B) Lat,Lon (METOP-B) SZA (METOP-B ) Distance(km) Time Diff (sec)
1 04/07/2018 07:35:39 -73.47,-118.74 113.40 04/07/2018 07:34:30 -73.42,-120.54 113.37 57.28 69
2 04/07/2018 08:25:15 73.93, 47.90 67.08 04/07/2018 08:25:00 73.92, 47.94 67.07 1.95 15
3 04/07/2018 09:14:42 -73.99,-144.58 112.87 04/07/2018 09:15:40 -74.00,-144.54 112.87 1.81 58
4 04/10/2018 03:09:59 -73.69, -52.78 114.22 04/10/2018 03:08:47 -73.64, -53.64 114.23 27.60 72
5 04/10/2018 03:59:31 73.94, 114.31 66.04 04/10/2018 03:59:21 73.93, 114.38 66.03 2.56 10
6 04/10/2018 04:48:58 -74.00, -78.18 113.92 04/10/2018 04:50:01 -74.01, -78.09 113.91 3.12 63
7 04/12/2018 22:44:18 -73.87, 13.27 115.07 04/12/2018 22:43:04 -73.85, 13.27 115.07 1.68 74
8 04/12/2018 23:33:46 73.91,-179.18 64.97 04/12/2018 23:33:42 73.94,-179.19 65.00 3.36 4
9 04/13/2018 00:23:13 -73.97, -11.67 114.99 04/13/2018 00:24:23 -73.98, -11.77 114.98 3.21 70
10 04/15/2018 18:18:32 -73.84, 79.76 116.11 04/15/2018 18:17:24 -73.87, 79.71 116.08 3.12 68
11 04/15/2018 19:08:01 73.93,-112.80 63.98 04/15/2018 19:08:02 73.95,-112.77 63.99 1.84 1
12 04/15/2018 19:57:29 -74.04, 54.58 115.92 04/15/2018 19:58:42 -74.04, 54.79 115.94 6.40 73
13 04/18/2018 13:52:48 -73.88, 146.12 117.07 04/18/2018 13:51:45 -73.88, 146.14 117.06 0.83 63
14 04/18/2018 14:42:17 73.96, -46.44 63.01 04/18/2018 14:42:23 73.95, -46.34 63.00 3.27 6




NCC Satellite Simultaneous Nadir Overpasses (SNOs) Prediction Service
